Regional Weather Roundup
Issued by NWS

Home | Current Version | Previous Version | Text Only | Print | Product List | Glossary Off
Versions: 1 2 3 4 5 6 7 8 9 10 11 12 13 14 15 16 17 18 19 20 21 22 23 24 25 26 27 28 29 30 31 32 33 34 35 36 37 38 39 40 41 42 43 44 45 46 47 48 49 50

363
ASUS44 KJAN 231110
RWRMS

MISSISSIPPI HOURLY WEATHER ROUNDUP
NATIONAL WEATHER SERVICE JACKSON MS
600 AM CDT TUE SEP 23 2014

NOTE: "FAIR: INDICATES FEW OR NO CLOUDS BELOW 12,000 FEET WITH NO
SIGNIFICANT WEATHER AND/OR OBSTRUCTIONS TO VISIBILITY.

MSZ001>002-007>008-010>013-018>021-025>028-034>036-231200-
NORTHWEST MISSISSIPPI

CITY           SKY/WX    TMP DP  RH WIND       PRES   REMARKS
CLARKSDALE     FAIR      54  50  87 NE7       30.21S
CLEVELAND      FAIR      54  51  92 NE6       30.19R
GREENWOOD      CLEAR     51  48  89 NE7       30.18R
GREENVILLE     CLEAR     56  51  84 NE8       30.17R
GRENADA        FAIR      52  48  87 CALM      30.20R
OLIVE BRANCH   CLEAR     52  52 100 NE6       30.22S
OXFORD         FAIR      48  46  93 CALM      30.22R
TUNICA         SUNNY     50  46  87 N5        30.22R
$$

MSZ003>006-009-014>017-022>024-029>033-037>039-231200-
NORTHEAST MISSISSIPPI

CITY           SKY/WX    TMP DP  RH WIND       PRES   REMARKS
COLUMBUS AFB   CLEAR     51  48  90 N3        30.17R
CORINTH          N/A     48  45  87 N5        30.21R
GOLDN TRIANGLE CLEAR     52  46  82 N5        30.17R
STARKVILLE     FAIR      52  50  93 CALM      30.17R
TUPELO         CLEAR     51  47  86 NE8       30.19R
$$

MSZ040-058-231200-
CENTRAL MISSISSIPPI

CITY           SKY/WX    TMP DP  RH WIND       PRES   REMARKS
JACKSON INTL   CLEAR     57  51  80 NE5       30.15R
JACKSON HAWKNS CLEAR     59  52  77 N3        30.15R
MERIDIAN KEY   CLEAR     53  50  89 NW3       30.14R
MERIDIAN NAS   CLEAR     56  49  77 N6        30.14R
RAYMOND        FAIR      52  46  82 CALM      30.15S
VICKSBURG      CLEAR     59  55  87 NE8       30.15R
$$

MSZ059>079-231200-
SOUTH MISSISSIPPI

CITY           SKY/WX    TMP DP  RH WIND       PRES   REMARKS
BROOKHAVEN     FAIR      57  54  88 N3        30.15R
COLUMBIA       FAIR      59  54  82 CALM      30.11R
HATTIESBURG    CLEAR     58  54  86 N3        30.12R
MCCOMB         CLEAR     59  52  77 N5        30.12R
NATCHEZ        CLEAR     57  52  82 NE3       30.13S
PINE BELT      CLEAR     55  48  76 N7        30.13R
$$

MSZ080>082-231200-
COASTAL MISSISSIPPI

CITY           SKY/WX    TMP DP  RH WIND       PRES   REMARKS
BILOXI         CLEAR     62  54  74 NE8       30.07R
PASCAGOULA     CLEAR     56  53  90 NE3       30.07R
GULFPORT       CLEAR     61  53  75 N8        30.07R
$$



USA.gov is the U.S. government's official web portal to all federal, state and local government web resources and services.